Lexington Weather

Lexington, Massachusetts, USA

34°F
4/16/2021 9:28am 
  • Lexington Conditions: Snow, Mist, Overcast
  • Temperature: 34.0°F / 1.1°CColder 3.9°F than last hour.
  • Dew Point: 32.7°FDecreased 4.0°Fsince last hour.
  • Relative Humidity: 95
  • Wind: Calm, 10-min avg: Calm, gust: None
  • Barometer: 29.48 inFalling 0.03  inHg/hr Falling Slowly
  • Visibility: ½ mile
  • Snow Today: 0.3 in
  •   

Regional Weather Roundup
for Boston / Norton, MA

        
000
ASUS41 KBOX 142204
RWRBOX

REGIONAL WEATHER ROUNDUP
NATIONAL WEATHER SERVICE BOSTON/NORTON MA
600 PM EDT WED APR 14 2021

NOTE:  "FAIR" INDICATES FEW OR NO CLOUDS BELOW 12,000 FEET WITH NO 
SIGNIFICANT WEATHER AND/OR OBSTRUCTIONS TO VISIBILITY.

MAZALL-142300-
EASTERN MASSACHUSETTS
  
CITY           SKY/WX    TMP DP  RH WIND       PRES   REMARKS
BOSTON         MOSUNNY   49  38  65 E14       29.98S                  
BEVERLY        NOT AVBL                                               
LAWRENCE       SUNNY     54  38  54 VRB7      29.97S                  
BEDFORD        SUNNY     53  37  54 SE13      29.94F                  
BLUE HILL        N/A     52  38  58 SE13      29.93F                  
NORWOOD        SUNNY     58  38  47 E12       29.95S                  
MARSHFIELD     SUNNY     48  37  66 SE9       29.98F                  
PLYMOUTH       SUNNY     51  36  56 SE8       29.97F                  
TAUNTON          N/A    N/A N/A N/A MISG      29.96S                  
NEW BEDFORD    SUNNY     52  38  58 S8        29.97S                  
$$

MAZALL-142300-
CAPE COD AND THE ISLANDS
  
CITY           SKY/WX    TMP DP  RH WIND       PRES   REMARKS
FALMOUTH       SUNNY     50  37  62 SE9       29.98F                  
HYANNIS        SUNNY     49  39  68 S7        29.98S                  
CHATHAM        SUNNY     47  35  63 NE7       30.00F                  
PROVINCETOWN   SUNNY     47  36  65 E10       29.99F                  
NANTUCKET      SUNNY     50  36  58 NE6       29.99F                  
MARTHAS VNYRD  SUNNY     49  40  71 S8        29.99S                  
$$
 
MAZALL-142300-
CENTRAL AND WESTERN MASSACHUSETTS
  
CITY           SKY/WX    TMP DP  RH WIND       PRES   REMARKS
WORCESTER      CLOUDY    59  42  53 S14G20    29.92R                  
FITCHBURG      PTSUNNY   59  40  49 SE12      29.92R                  
ORANGE         CLOUDY    68  40  35 S9        29.87F                  
SPRINGFIELD    PTSUNNY   67  44  43 S8G21     29.86S                  
WESTFIELD      SUNNY     66  42  41 S12       29.86F                  
NORTH ADAMS    CLOUDY    66  37  34 CALM      29.85F                  
PITTSFIELD     CLOUDY    63  38  39 W5        29.86S                  
$$
 
RIZALL-142300-
RHODE ISLAND
  
CITY           SKY/WX    TMP DP  RH WIND       PRES   REMARKS
PROVIDENCE     PTSUNNY   51  38  60 S9        29.97S                  
NEWPORT        SUNNY     47  38  71 S8        29.97F                  
BLOCK ISLAND   MOSUNNY   46  39  76 SE9       29.98S                  
SMITHFIELD     MOSUNNY   53  41  63 VRB6      29.96R                  
WESTERLY       MOSUNNY   47  41  80 SE10      29.97F                  
$$
 
CTZALL-142300-
CONNECTICUT
  
CITY           SKY/WX    TMP DP  RH WIND       PRES   REMARKS
BRADLEY INTL   PTSUNNY   65  42  43 S15       29.88S                  
HARTFORD       MOSUNNY   63  43  48 S13       29.89S                  
BRIDGEPORT     MOSUNNY   54  47  77 E12       29.90F                  
DANBURY        CLOUDY    68  42  38 SW8       29.89R                  
GROTON         CLOUDY    48  43  82 SE10      29.96S                  
NEW HAVEN      MOSUNNY   57  46  66 E15       29.91S                  
CHESTER        FAIR      55  45  67 SE8       29.93F                  
MERIDEN        MOSUNNY   62  45  53 SE9       29.90R                  
WILLIMANTIC    CLOUDY    56  42  59 S10       29.93S                  
OXFORD         CLOUDY    61  47  59 SE13      29.90S                  
$$

MEZ002-015-021-024-NHZ003-005-008-011-012-014-VTZ005-008-142300-
NORTHERN NEW ENGLAND
  
CITY           SKY/WX    TMP DP  RH WIND       PRES   REMARKS
PORTLAND ME    SUNNY     46  39  76 S9        29.96S                  
BANGOR ME      SUNNY     61  23  23 CALM      29.93S                  
CONCORD NH     SUNNY     61  41  47 S15       29.90S                  
MANCHESTER NH  MOSUNNY   61  39  44 SE12      29.90F                  
NASHUA NH      PTSUNNY   61  41  47 SE8       29.93S                  
PORTSMOUTH NH  MOSUNNY   49  37  64 SE10      29.97S                  
JAFFREY NH     PTSUNNY   60  41  49 VRB5      29.89F                  
KEENE NH       PTSUNNY   65  43  44 MISG      29.87S                  
BURLINGTON VT  PTSUNNY   64  34  32 N9        29.87S                  
MT. WASHINGTON PTSUNNY   37  34  87 W15         N/A  WCI  28          
$$

NYZ052-076-142300-
EASTERN NEW YORK
  
CITY           SKY/WX    TMP DP  RH WIND       PRES   REMARKS
ALBANY         CLOUDY    66  36  32 SE5       29.85F                  
NEW YORK CITY  CLOUDY    66  47  50 SW10      29.90S                  
$$
 
ANZALL-142300-
MARINE OBSERVATIONS
  
STATION/POSITION TIME  TEMP    WIND        PRES    VSBY  WAVE
                       AIR SEA DIR/SP/G                  HT/PER
                 (UTC) (F)     (DEG/KT/KT) (MB)    (MI)  (FT/S)
BOSTON BUOY      2140   44 45  140/ 12/ 14 1015.6F
BUZZARDS BAY     2100          170/ 10/ 10 1016.4F
NANTUCKET SOUND  2150      48                N/A           1/ 8
MASS BAY-STELLWA 2104   45     130/ 10/ 12 1014.3F  1 7/8  5/ 8
ISLE OF SHOALS   2100   43     130/ 14/ 15 1014.2F
S OF BLOCK IS    2126      46                N/A           3/11
$$

......................KEY.........................
  SKY/WX - SKY CONDITION/PRESENT WEATHER
  TMP    - TEMPERATURE IN FAHRENHEIT
  DWPT   - DEWPOINT IN FAHRENHEIT
  RH     - RELATIVE HUMIDITY IN PERCENT
  WIND   - DIRECTION AND SPEED IN MPH
  PRES   - MEAN SEA LEVEL PRESSURE IN INCHES OF HG
  WCI    - WIND CHILL INDEX
  VSB    - VISIBILITY IN MILES
  HX     - HEAT INDEX
  TC     - TEMPERATURE IN CELSIUS
  VRB    - VARIABLE WIND DIRECTION
  N/A    - NOT AVAILABLE
  
      

Other recent Regional Weather Roundups

Fri Apr 16, 9:04am

Fri Apr 16, 8:04am

Fri Apr 16, 7:04am

Fri Apr 16, 6:04am

Fri Apr 16, 5:04am

Fri Apr 16, 4:04am

Fri Apr 16, 3:04am

Fri Apr 16, 2:04am

Fri Apr 16, 1:04am

Fri Apr 16, 12:04am

Thu Apr 15, 11:05pm

Thu Apr 15, 10:04pm

Thu Apr 15, 9:04pm

Thu Apr 15, 8:04pm

Thu Apr 15, 7:05pm

Thu Apr 15, 6:04pm

Thu Apr 15, 5:05pm

Thu Apr 15, 4:04pm

Thu Apr 15, 3:05pm

Thu Apr 15, 2:04pm

Thu Apr 15, 1:05pm

Thu Apr 15, 12:04pm

Thu Apr 15, 11:04am

Thu Apr 15, 10:05am

Thu Apr 15, 9:04am

Thu Apr 15, 8:04am

Thu Apr 15, 7:04am

Thu Apr 15, 6:04am

Thu Apr 15, 5:04am

Thu Apr 15, 4:04am

Thu Apr 15, 3:04am

Thu Apr 15, 2:04am

Thu Apr 15, 1:04am

Thu Apr 15, 12:04am

Wed Apr 14, 11:04pm

Wed Apr 14, 10:04pm

Wed Apr 14, 9:04pm

Wed Apr 14, 8:04pm

Wed Apr 14, 7:04pm

Wed Apr 14, 5:05pm

Wed Apr 14, 4:04pm

Wed Apr 14, 3:05pm

Wed Apr 14, 2:04pm

Wed Apr 14, 1:05pm

Wed Apr 14, 12:04pm

Wed Apr 14, 11:04am

Wed Apr 14, 10:04am

Wed Apr 14, 9:04am

Wed Apr 14, 8:04am

Wed Apr 14, 7:04am

Wed Apr 14, 6:04am

Wed Apr 14, 5:04am

Wed Apr 14, 4:04am

Wed Apr 14, 3:04am

Wed Apr 14, 2:04am

Wed Apr 14, 1:04am

Wed Apr 14, 12:04am

Tue Apr 13, 11:04pm

Tue Apr 13, 10:05pm

Tue Apr 13, 9:05pm

Tue Apr 13, 8:05pm

Tue Apr 13, 7:04pm

Tue Apr 13, 6:04pm

Tue Apr 13, 5:05pm

Tue Apr 13, 4:04pm

Tue Apr 13, 3:04pm

Tue Apr 13, 2:05pm

Tue Apr 13, 1:04pm

Tue Apr 13, 12:05pm

Tue Apr 13, 11:05am

Tue Apr 13, 10:04am

Tue Apr 13, 9:04am

Tue Apr 13, 8:04am

Tue Apr 13, 7:04am

Tue Apr 13, 6:04am

Tue Apr 13, 5:04am

Tue Apr 13, 4:04am

Tue Apr 13, 3:04am

Tue Apr 13, 2:04am

Tue Apr 13, 1:04am

Tue Apr 13, 12:05am

Mon Apr 12, 11:04pm

Mon Apr 12, 10:04pm

Mon Apr 12, 9:04pm

Mon Apr 12, 8:04pm

Mon Apr 12, 7:05pm

Mon Apr 12, 6:04pm

Mon Apr 12, 5:04pm

Mon Apr 12, 4:04pm

Mon Apr 12, 3:05pm

Mon Apr 12, 2:04pm

Mon Apr 12, 1:05pm

Mon Apr 12, 12:04pm

Mon Apr 12, 11:04am

Mon Apr 12, 10:04am

Mon Apr 12, 9:04am

Mon Apr 12, 8:04am

Mon Apr 12, 7:04am

Mon Apr 12, 6:04am

Mon Apr 12, 5:04am

Mon Apr 12, 4:04am

Mon Apr 12, 3:04am

Mon Apr 12, 2:04am

Mon Apr 12, 1:05am

Mon Apr 12, 12:04am

Sun Apr 11, 11:04pm

Sun Apr 11, 10:04pm

Sun Apr 11, 9:04pm

Sun Apr 11, 8:04pm

Sun Apr 11, 7:04pm

Sun Apr 11, 6:05pm

Sun Apr 11, 5:05pm

Sun Apr 11, 4:04pm

Sun Apr 11, 3:05pm

Sun Apr 11, 2:05pm

Sun Apr 11, 1:05pm

Sun Apr 11, 12:04pm

Sun Apr 11, 11:05am

Sun Apr 11, 10:05am

Sun Apr 11, 9:04am

Sun Apr 11, 8:04am

Sun Apr 11, 7:04am

Sun Apr 11, 6:04am

Sun Apr 11, 5:04am

Sun Apr 11, 4:04am

Sun Apr 11, 3:04am

Sun Apr 11, 2:04am

Sun Apr 11, 1:05am

Sun Apr 11, 12:04am

Sat Apr 10, 11:05pm

Sat Apr 10, 10:04pm

Sat Apr 10, 9:04pm

Sat Apr 10, 8:04pm

Sat Apr 10, 7:05pm

Sat Apr 10, 6:04pm

Sat Apr 10, 5:04pm

Sat Apr 10, 4:04pm

Sat Apr 10, 3:04pm

Sat Apr 10, 2:05pm

Sat Apr 10, 1:04pm

Sat Apr 10, 12:04pm

Sat Apr 10, 11:04am

Sat Apr 10, 10:04am

Sat Apr 10, 9:04am

Sat Apr 10, 8:04am

Sat Apr 10, 7:04am

Sat Apr 10, 6:04am

Sat Apr 10, 5:04am

Sat Apr 10, 4:04am

Sat Apr 10, 3:04am

Sat Apr 10, 2:04am

Sat Apr 10, 1:05am

Sat Apr 10, 12:04am

Fri Apr 9, 11:04pm

Fri Apr 9, 10:05pm

Fri Apr 9, 9:04pm

Fri Apr 9, 8:05pm

Fri Apr 9, 7:05pm

Fri Apr 9, 6:04pm

Fri Apr 9, 5:04pm

Fri Apr 9, 4:05pm

Fri Apr 9, 3:05pm

Fri Apr 9, 2:04pm

Fri Apr 9, 1:04pm

Fri Apr 9, 12:04pm

Fri Apr 9, 11:05am

Fri Apr 9, 10:04am

Meta data:

ID: a28ec677-df1b-4469-a83e-dc8ec776b55f
Link: https://api.weather.gov/products/a28ec677-df1b-4469-a83e-dc8ec776b55f